This is the latest recevied weather packets stored in our database for station/object OE-11343. If no packets are shown the sender has not sent any weather packets the latest 10 day(s).
| Time | Temp. | Humidity | Pressure | Rain* | Wind** | Luminosity | Snow |
|---|---|---|---|---|---|---|---|
| 1788004525 | 5° C | 99% | 714 hPa | - | - | 230 W/m² | - |
| 1788003698 | 5° C | 100% | 714 hPa | - | - | 270 W/m² | - |
| 1788003325 | 5° C | 100% | 714 hPa | - | - | 300 W/m² | - |
| 1788002725 | 5° C | 100% | 714 hPa | - | - | 320 W/m² | - |
| 1788001898 | 5° C | 100% | 714 hPa | - | - | 290 W/m² | - |
| 1788001525 | 5° C | 100% | 714 hPa | - | - | 230 W/m² | - |
| 1788000925 | 5° C | 100% | 714 hPa | - | - | 280 W/m² | - |
| 1788000098 | 5° C | 100% | 714 hPa | - | - | 240 W/m² | - |
| 1787999725 | 5° C | 100% | 714 hPa | - | - | 330 W/m² | - |
| 1787999125 | 4.44° C | 100% | 713.9 hPa | - | - | 380 W/m² | - |
| 1787998298 | 4.44° C | 100% | 713.9 hPa | - | - | 400 W/m² | - |
| 1787997924 | 4.44° C | 100% | 713.9 hPa | - | - | 280 W/m² | - |
| 1787997325 | 4.44° C | 100% | 714 hPa | - | - | 260 W/m² | - |
| 1787996498 | 4.44° C | 100% | 713.9 hPa | - | - | 380 W/m² | - |
| 1787996125 | 4.44° C | 100% | 713.9 hPa | - | - | 330 W/m² | - |
| 1787995525 | 4.44° C | 100% | 713.9 hPa | - | - | 330 W/m² | - |
| 1787994698 | 3.89° C | 100% | 713.9 hPa | - | - | 270 W/m² | - |
| 1787994325 | 3.89° C | 100% | 713.9 hPa | - | - | 230 W/m² | - |
| 1787993725 | 3.89° C | 100% | 713.7 hPa | - | - | 370 W/m² | - |
| 1787992897 | 3.89° C | 100% | 713.7 hPa | - | - | 240 W/m² | - |
| 1787992524 | 3.33° C | 100% | 713.5 hPa | - | - | 220 W/m² | - |
| 1787991924 | 3.33° C | 100% | 713.5 hPa | - | - | 120 W/m² | - |
| 1787991098 | 2.78° C | 100% | 713.6 hPa | - | - | 180 W/m² | - |
| 1787990724 | 3.33° C | 100% | 713.6 hPa | - | - | 150 W/m² | - |
| 1787990125 | 3.89° C | 100% | 713.5 hPa | - | - | 90 W/m² | - |
* Rain since midnight (hover to see other rain measurements)
** Current wind speed in m/s (hover to see current wind gust speed)